Regional Weather Roundup
Issued by NWS Burlington, VT

Home | Current Version | Previous Version | Text Only | Print | Product List | Glossary On
Versions: 1 2 3 4 5 6 7 8 9 10 11 12 13 14 15 16 17 18 19 20 21 22 23 24 25 26 27 28 29 30 31 32 33 34 35 36 37 38 39 40 41 42 43 44 45 46 47 48 49 50
540
ASUS41 KBTV 100310
RWRBTV
VERMONT REGIONAL WEATHER ROUNDUP
NATIONAL WEATHER SERVICE BURLINGTON VT
1000 PM EST TUE FEB 09 2016

NOTE: "FAIR" INDICATES FEW OR NO CLOUDS BELOW 12,000 FEET WITH NO
SIGNIFICANT WEATHER AND/OR OBSTRUCTIONS TO VISIBILITY.

* THESE REPORTS ARE NOT UNDER NWS QUALITY CONTROL AND/OR DO NOT
  REPORT WEATHER SUCH AS PRECIPITATION AND FOG.

VTZ001>019-100400-
_____VERMONT_____


CITY           SKY/WX    TMP DP  RH WIND       PRES   REMARKS
BURLINGTON     LGT SNOW  25  20  81 CALM      29.55F
MONTPELIER     CLOUDY    21  16  81 S7        29.55F WCI  12
MORRISVILLE    CLOUDY    21  17  84 CALM      29.54S
ST. JOHNSBURY*   N/A     19  13  77 MISG      29.53F
LYNDONVILLE*   MOCLDY    19  15  85 CALM      29.52F
RUTLAND*       CLOUDY    25  16  68 SE5       29.55R WCI  19
SPRINGFIELD    CLOUDY    22  19  89 CALM      29.57F
HIGHGATE*      LGT SNOW  20  18  92 CALM      29.56F
NEWPORT*       CLOUDY    16  13  89 N3        29.53F
BENNINGTON     CLOUDY    26  22  84 CALM      29.55S

_____LAKE CHAMPLAIN_____


CITY           SKY/WX    TMP DP  RH WIND       PRES   REMARKS

$$

NYZ007-026>031-035-052-083-100400-
_____NORTHERN NEW YORK_____


CITY           SKY/WX    TMP DP  RH WIND       PRES   REMARKS
PLATTSBURGH    LGT SNOW  22  18  85 NW5       29.56F FOG     WCI  16
SARANAC LAKE   CLOUDY    20  17  88 NE3       29.44F
MASSENA        FLURRIES  20  16  84 NE8       29.58F WCI  10
OGDENSBURG*    FLURRIES  21  19  93 NE5       29.56S WCI  15
WATERTOWN      CLOUDY    25  22  88 NE5       29.55S FOG     WCI  19
ALBANY         CLOUDY    28  24  85 S3        29.59S
GLENS FALLS    LGT SNOW  24  21  88 CALM      29.58S FOG

$$
NHZ002-005-011-100400-
_____NEW HAMPSHIRE_____


CITY           SKY/WX    TMP DP  RH WIND       PRES   REMARKS
LEBANON        CLOUDY    22  17  81 CALM      29.56F
MT WASHINGTON  BLWGSNOW   7   7 100 W33         N/A  VSB 1/16WCI -18
PLYMOUTH       FAIR      16  14  93 CALM      29.58S FOG
WHITEFIELD     CLOUDY    23  16  74 CALM      29.52S

$$

_____REGIONAL QUEBEC LOCATIONS_____


CITY           SKY/WX    TMP DP  RH WIND       PRES   REMARKS
MONTREAL       LGT SNOW  19  14  79 NE8       29.58F WCI   9
QUEBEC CITY    SNOWSHWR  18  14  86 N5        29.60F WCI  11
SHERBROOKE     FLURRIES  14  12  92 NE3       29.53F

_____REGIONAL ONTARIO LOCATIONS_____


CITY           SKY/WX    TMP DP  RH WIND       PRES   REMARKS
OTTAWA         FLURRIES  18  14  86 NE7       29.57F WCI   8

______KEY______
VSB  - VISIBILITY IN MILES
WCI  - WIND CHILL INDEX
HX   - HEAT INDEX
$$
NNNN




USA.gov is the U.S. government's official web portal to all federal, state and local government web resources and services.